| time (UTC) | temp F | wind direction | speed knots | gust knots | rain 1hr in | rain 24hr in | rain mn in | humidity % | barometer mb |
| 20260906091053 | 73 | 11 | 4.3 | 7.8 | 0.00 | 0.00 | 0.00 | 93 | 1013.9 |
| 20260906090551 | 73 | 34 | 2.6 | 7.8 | 0.00 | 0.00 | 0.00 | 93 | 1014.0 |
| 20260906090115 | 73 | 25 | 4.3 | 7.8 | 0.00 | 0.00 | 0.00 | 93 | 1013.9 |
| 20260906085553 | 73 | 42 | 3.5 | 8.7 | 0.00 | 0.00 | 0.00 | 93 | 1013.8 |
| 20260906085052 | 73 | 75 | 2.6 | 8.7 | 0.00 | 0.00 | 0.00 | 94 | 1013.7 |
| 20260906084610 | 73 | 51 | 3.5 | 7.0 | 0.00 | 0.00 | 0.00 | 93 | 1013.7 |
| 20260906084053 | 73 | 15 | 1.7 | 6.1 | 0.00 | 0.00 | 0.00 | 94 | 1013.7 |
| 20260906083552 | 73 | 34 | 2.6 | 7.0 | 0.00 | 0.00 | 0.00 | 94 | 1013.7 |
| 20260906083059 | 73 | 8 | 2.6 | 7.0 | 0.00 | 0.00 | 0.00 | 94 | 1013.7 |
| 20260906082552 | 73 | 63 | 2.6 | 7.0 | 0.00 | 0.00 | 0.00 | 94 | 1013.7 |
| 20260906082055 | 73 | 15 | 0.9 | 6.1 | 0.00 | 0.00 | 0.00 | 94 | 1013.6 |
| 20260906081607 | 73 | 12 | 1.7 | 4.3 | 0.00 | 0.00 | 0.00 | 94 | 1013.5 |
| 20260906081055 | 73 | 0 | 1.7 | 4.3 | 0.00 | 0.00 | 0.00 | 94 | 1013.5 |
| 20260906080552 | 73 | 360 | 0.9 | 5.2 | 0.00 | 0.00 | 0.00 | 94 | 1013.6 |
| 20260906075552 | 73 | 359 | 2.6 | 6.1 | 0.00 | 0.00 | 0.00 | 94 | 1013.5 |
| 20260906075053 | 73 | 23 | 2.6 | 6.1 | 0.00 | 0.00 | 0.00 | 94 | 1013.6 |
| 20260906074607 | 73 | 7 | 2.6 | 6.1 | 0.00 | 0.00 | 0.00 | 94 | 1013.5 |
| 20260906074052 | 73 | 4 | 1.7 | 3.5 | 0.00 | 0.00 | 0.00 | 93 | 1013.6 |
| 20260906073556 | 73 | 6 | 1.7 | 3.5 | 0.00 | 0.00 | 0.00 | 93 | 1013.5 |
| 20260906073109 | 73 | 13 | 0.9 | 5.2 | 0.00 | 0.00 | 0.00 | 93 | 1013.6 |
| 20260906072554 | 73 | 0 | 1.7 | 5.2 | 0.00 | 0.00 | 0.00 | 93 | 1013.7 |
| 20260906072059 | 73 | 26 | 0.9 | 4.3 | 0.00 | 0.00 | 0.00 | 93 | 1013.7 |
| 20260906071609 | 73 | 21 | 0.0 | 4.3 | 0.00 | 0.00 | 0.00 | 93 | 1013.8 |
| 20260906071053 | 73 | 7 | 0.9 | 4.3 | 0.00 | 0.00 | 0.00 | 93 | 1013.9 |
| 20260906070553 | 73 | 29 | 0.0 | 4.3 | 0.00 | 0.00 | 0.00 | 92 | 1013.9 |
| 20260906070125 | 73 | 32 | 1.7 | 4.3 | 0.00 | 0.00 | 0.00 | 92 | 1013.8 |
| 20260906065555 | 73 | 0 | 0.0 | 2.6 | 0.00 | 0.00 | 0.00 | 92 | 1013.7 |
| 20260906065053 | 74 | 27 | 0.0 | 5.2 | 0.00 | 0.00 | 0.00 | 91 | 1013.7 |
| 20260906064602 | 74 | 359 | 0.9 | 5.2 | 0.00 | 0.00 | 0.00 | 91 | 1013.8 |
| 20260906064053 | 74 | 18 | 0.0 | 2.6 | 0.00 | 0.00 | 0.00 | 91 | 1013.9 |
| 20260906063552 | 74 | 18 | 0.9 | 2.6 | 0.00 | 0.00 | 0.00 | 90 | 1013.8 |
| 20260906063058 | 74 | 14 | 0.0 | 1.7 | 0.00 | 0.00 | 0.00 | 90 | 1013.9 |
| 20260906062552 | 74 | 0 | 0.0 | 3.5 | 0.00 | 0.00 | 0.00 | 90 | 1013.8 |
| 20260906062052 | 75 | 1 | 0.9 | 5.2 | 0.00 | 0.00 | 0.00 | 89 | 1013.9 |
| 20260906061635 | 75 | 21 | 0.9 | 5.2 | 0.00 | 0.00 | 0.00 | 89 | 1013.9 |
| 20260906061052 | 75 | 12 | 1.7 | 5.2 | 0.00 | 0.00 | 0.00 | 89 | 1014.1 |
| 20260906060555 | 75 | 360 | 0.9 | 3.5 | 0.00 | 0.00 | 0.00 | 89 | 1014.0 |
| 20260906060104 | 75 | 34 | 1.7 | 3.5 | 0.00 | 0.00 | 0.00 | 89 | 1013.9 |
| 20260906055556 | 75 | 3 | 0.0 | 4.3 | 0.00 | 0.00 | 0.00 | 88 | 1013.8 |
| 20260906055052 | 75 | 44 | 0.9 | 4.3 | 0.00 | 0.00 | 0.00 | 88 | 1013.8 |
| 20260906054602 | 75 | 12 | 0.9 | 2.6 | 0.00 | 0.00 | 0.00 | 88 | 1013.8 |
| 20260906054053 | 76 | 0 | 0.0 | 4.3 | 0.00 | 0.00 | 0.00 | 88 | 1013.8 |
| 20260906053552 | 76 | 0 | 0.0 | 4.3 | 0.00 | 0.00 | 0.00 | 88 | 1013.8 |
| 20260906053102 | 76 | 360 | 0.9 | 4.3 | 0.00 | 0.00 | 0.00 | 87 | 1013.8 |
| 20260906052552 | 76 | 8 | 0.9 | 5.2 | 0.00 | 0.00 | 0.00 | 87 | 1014.0 |
| 20260906052053 | 76 | 1 | 0.0 | 5.2 | 0.00 | 0.00 | 0.00 | 87 | 1013.9 |
| 20260906051604 | 76 | 15 | 2.6 | 5.2 | 0.00 | 0.00 | 0.00 | 87 | 1013.8 |
| 20260906051052 | 76 | 9 | 0.9 | 3.5 | 0.00 | 0.00 | 0.00 | 87 | 1013.6 |
| 20260906050552 | 76 | 0 | 0.9 | 3.5 | 0.00 | 0.00 | 0.00 | 87 | 1013.6 |
| 20260906050115 | 76 | 0 | 0.0 | 2.6 | 0.00 | 0.00 | 0.00 | 87 | 1013.6 |
| 20260906045553 | 76 | 40 | 0.0 | 3.5 | 0.00 | 0.00 | 0.00 | 87 | 1013.5 |
| 20260906045053 | 76 | 0 | 0.9 | 3.5 | 0.00 | 0.00 | 0.00 | 86 | 1013.5 |
| 20260906044603 | 77 | 32 | 0.9 | 3.5 | 0.00 | 0.00 | 0.00 | 86 | 1013.5 |
| 20260906044053 | 77 | 0 | 0.9 | 2.6 | 0.00 | 0.00 | 0.00 | 86 | 1013.3 |
| 20260906043552 | 77 | 348 | 0.9 | 2.6 | 0.00 | 0.00 | 0.00 | 85 | 1013.4 |
| 20260906043109 | 77 | 0 | 0.0 | 0.0 | 0.00 | 0.00 | 0.00 | 84 | 1013.1 |
| 20260906042552 | 78 | 0 | 0.0 | 1.7 | 0.00 | 0.00 | 0.00 | 84 | 1013.1 |
| 20260906042052 | 78 | 0 | 0.0 | 1.7 | 0.00 | 0.00 | 0.00 | 84 | 1013.2 |
| 20260906041555 | 78 | 25 | 0.0 | 5.2 | 0.00 | 0.00 | 0.00 | 83 | 1013.2 |
| 20260906041053 | 78 | 25 | 1.7 | 5.2 | 0.00 | 0.00 | 0.00 | 83 | 1013.1 |
| 20260906040552 | 78 | 27 | 2.6 | 5.2 | 0.00 | 0.00 | 0.00 | 83 | 1013.2 |
| 20260906040119 | 79 | 22 | 0.9 | 4.3 | 0.00 | 0.00 | 0.00 | 83 | 1013.1 |
| 20260906035553 | 79 | 26 | 0.9 | 3.5 | 0.00 | 0.00 | 0.00 | 83 | 1013.1 |
| 20260906035052 | 79 | 0 | 0.9 | 5.2 | 0.00 | 0.00 | 0.00 | 82 | 1013.2 |
| 20260906034559 | 79 | 0 | 0.0 | 7.0 | 0.00 | 0.00 | 0.00 | 82 | 1013.2 |
| 20260906034052 | 79 | 58 | 2.6 | 7.8 | 0.00 | 0.00 | 0.00 | 82 | 1013.2 |
| 20260906033552 | 80 | 1 | 1.7 | 7.8 | 0.00 | 0.00 | 0.00 | 82 | 1013.3 |
| 20260906033057 | 80 | 5 | 0.0 | 4.3 | 0.00 | 0.00 | 0.00 | 82 | 1013.4 |
| 20260906032555 | 80 | 6 | 1.7 | 4.3 | 0.00 | 0.00 | 0.00 | 82 | 1013.4 |
| 20260906032056 | 80 | 358 | 0.0 | 5.2 | 0.00 | 0.00 | 0.00 | 81 | 1013.3 |
| 20260906031603 | 80 | 2 | 1.7 | 7.0 | 0.00 | 0.00 | 0.00 | 81 | 1013.3 |
| 20260906031052 | 81 | 22 | 2.6 | 7.0 | 0.00 | 0.00 | 0.00 | 81 | 1013.2 |
| 20260906030552 | 81 | 32 | 2.6 | 7.0 | 0.00 | 0.00 | 0.00 | 80 | 1013.1 |
| 20260906030110 | 81 | 9 | 2.6 | 7.0 | 0.00 | 0.00 | 0.00 | 80 | 1013.2 |
| 20260906025552 | 81 | 30 | 0.9 | 4.3 | 0.00 | 0.00 | 0.00 | 80 | 1013.2 |
| 20260906025053 | 81 | 41 | 0.9 | 4.3 | 0.00 | 0.00 | 0.00 | 80 | 1013.1 |
| 20260906024603 | 81 | 315 | 0.0 | 4.3 | 0.00 | 0.00 | 0.00 | 79 | 1013.0 |
| 20260906024056 | 82 | 41 | 0.0 | 3.5 | 0.00 | 0.00 | 0.00 | 79 | 1013.0 |
| 20260906023555 | 82 | 1 | 0.0 | 4.3 | 0.00 | 0.00 | 0.00 | 79 | 1013.0 |
| 20260906023131 | 82 | 0 | 0.9 | 4.3 | 0.00 | 0.00 | 0.00 | 79 | 1012.9 |
| 20260906022552 | 82 | 1 | 0.9 | 6.1 | 0.00 | 0.00 | 0.00 | 78 | 1012.8 |
| 20260906022053 | 82 | 0 | 0.9 | 6.1 | 0.00 | 0.00 | 0.00 | 79 | 1012.7 |
| 20260906021608 | 82 | 275 | 1.7 | 5.2 | 0.00 | 0.00 | 0.00 | 79 | 1012.6 |
| 20260906021052 | 82 | 13 | 0.9 | 7.8 | 0.00 | 0.00 | 0.00 | 79 | 1012.5 |
| 20260906020553 | 82 | 271 | 2.6 | 7.8 | 0.00 | 0.00 | 0.00 | 79 | 1012.6 |
| 20260906020104 | 82 | 348 | 1.7 | 7.8 | 0.00 | 0.00 | 0.00 | 80 | 1012.7 |
| 20260906015552 | 81 | 335 | 1.7 | 4.3 | 0.00 | 0.00 | 0.00 | 82 | 1012.7 |
| 20260906015052 | 81 | 2 | 0.9 | 3.5 | 0.00 | 0.00 | 0.00 | 83 | 1012.7 |
| 20260906014626 | 81 | 20 | 1.7 | 3.5 | 0.00 | 0.00 | 0.00 | 84 | 1012.5 |
| 20260906014052 | 81 | 339 | 0.9 | 3.5 | 0.00 | 0.00 | 0.00 | 85 | 1012.3 |
| 20260906013552 | 81 | 0 | 0.0 | 0.0 | 0.00 | 0.00 | 0.00 | 85 | 1012.0 |
| 20260906013100 | 81 | 0 | 0.0 | 0.9 | 0.00 | 0.00 | 0.00 | 84 | 1012.0 |
| 20260906012552 | 82 | 0 | 0.0 | 0.9 | 0.00 | 0.00 | 0.00 | 84 | 1011.9 |
| 20260906012052 | 82 | 0 | 0.0 | 0.9 | 0.00 | 0.00 | 0.00 | 84 | 1011.9 |
| 20260906011602 | 82 | 0 | 0.0 | 0.9 | 0.00 | 0.00 | 0.00 | 83 | 1011.9 |
| 20260906011052 | 82 | 0 | 0.0 | 0.9 | 0.00 | 0.00 | 0.00 | 83 | 1011.9 |
| 20260906010552 | 82 | 0 | 0.0 | 2.6 | 0.00 | 0.00 | 0.00 | 83 | 1011.8 |
| 20260906010107 | 83 | 0 | 0.9 | 2.6 | 0.00 | 0.00 | 0.00 | 82 | 1011.7 |
| 20260906005552 | 83 | 307 | 0.0 | 0.0 | 0.00 | 0.00 | 0.00 | 82 | 1011.7 |
| 20260906005052 | 83 | 0 | 0.0 | 0.9 | 0.00 | 0.00 | 0.00 | 81 | 1011.5 |
| 20260906004614 | 84 | 0 | 0.0 | 0.9 | 0.00 | 0.00 | 0.00 | 81 | 1011.6 |
| 20260906004055 | 84 | 0 | 0.0 | 0.0 | 0.00 | 0.00 | 0.00 | 81 | 1011.6 |
| 20260906003553 | 84 | 0 | 0.0 | 0.0 | 0.00 | 0.00 | 0.00 | 80 | 1011.6 |
| 20260906003113 | 85 | 0 | 0.0 | 0.0 | 0.00 | 0.00 | 0.00 | 79 | 1011.7 |
| 20260906002552 | 85 | 0 | 0.0 | 0.0 | 0.00 | 0.00 | 0.00 | 78 | 1011.8 |
| 20260906002053 | 86 | 0 | 0.0 | 0.0 | 0.00 | 0.00 | 0.00 | 77 | 1011.8 |
| 20260906001603 | 86 | 0 | 0.0 | 0.0 | 0.00 | 0.00 | 0.00 | 75 | 1011.8 |
| 20260906001052 | 87 | 0 | 0.0 | 0.9 | 0.00 | 0.00 | 0.00 | 73 | 1011.8 |
| 20260906000552 | 87 | 0 | 0.0 | 0.9 | 0.00 | 0.00 | 0.00 | 72 | 1011.9 |
| 20260906000111 | 88 | 0 | 0.0 | 2.6 | 0.00 | 0.00 | 0.00 | 71 | 1011.9 |
| 20260905235552 | 89 | 0 | 0.0 | 4.3 | 0.00 | 0.00 | 0.00 | 69 | 1012.0 |
| 20260905235052 | 89 | 285 | 0.9 | 4.3 | 0.00 | 0.00 | 0.00 | 69 | 1012.0 |
| 20260905234604 | 89 | 331 | 0.9 | 4.3 | 0.00 | 0.00 | 0.00 | 68 | 1012.0 |
| 20260905234053 | 90 | 328 | 0.9 | 3.5 | 0.00 | 0.00 | 0.00 | 67 | 1011.9 |
| 20260905233553 | 90 | 309 | 1.7 | 5.2 | 0.00 | 0.00 | 0.00 | 66 | 1012.0 |
| 20260905233109 | 90 | 321 | 1.7 | 6.1 | 0.00 | 0.00 | 0.00 | 66 | 1011.9 |
| 20260905232552 | 90 | 316 | 2.6 | 6.1 | 0.00 | 0.00 | 0.00 | 66 | 1011.9 |
| 20260905232052 | 90 | 314 | 1.7 | 4.3 | 0.00 | 0.00 | 0.00 | 66 | 1011.9 |
| 20260905231602 | 91 | 309 | 1.7 | 4.3 | 0.00 | 0.00 | 0.00 | 65 | 1011.9 |
| 20260905231053 | 91 | 328 | 1.7 | 4.3 | 0.00 | 0.00 | 0.00 | 64 | 1011.9 |
| 20260905230552 | 91 | 328 | 1.7 | 7.8 | 0.00 | 0.00 | 0.00 | 65 | 1011.8 |
| 20260905230104 | 91 | 338 | 3.5 | 7.8 | 0.00 | 0.00 | 0.00 | 64 | 1011.6 |
| 20260905225555 | 91 | 312 | 4.3 | 7.8 | 0.00 | 0.00 | 0.00 | 64 | 1011.6 |
| 20260905225052 | 91 | 341 | 3.5 | 9.6 | 0.00 | 0.00 | 0.00 | 64 | 1011.5 |
| 20260905224608 | 92 | 325 | 4.3 | 9.6 | 0.00 | 0.00 | 0.00 | 63 | 1011.6 |
| 20260905224053 | 92 | 326 | 1.7 | 6.1 | 0.00 | 0.00 | 0.00 | 64 | 1011.6 |
| 20260905223552 | 92 | 345 | 1.7 | 6.1 | 0.00 | 0.00 | 0.00 | 64 | 1011.6 |
| 20260905223102 | 92 | 354 | 2.6 | 6.1 | 0.00 | 0.00 | 0.00 | 64 | 1011.5 |
| 20260905222553 | 92 | 319 | 2.6 | 6.1 | 0.00 | 0.00 | 0.00 | 63 | 1011.4 |
| 20260905222055 | 92 | 347 | 2.6 | 7.0 | 0.00 | 0.00 | 0.00 | 63 | 1011.5 |
| 20260905221603 | 92 | 336 | 1.7 | 9.6 | 0.00 | 0.00 | 0.00 | 63 | 1011.4 |
| 20260905221053 | 92 | 334 | 4.3 | 9.6 | 0.00 | 0.00 | 0.00 | 62 | 1011.3 |
| 20260905220553 | 92 | 314 | 4.3 | 8.7 | 0.00 | 0.00 | 0.00 | 61 | 1011.2 |
| 20260905220118 | 92 | 21 | 2.6 | 7.8 | 0.00 | 0.00 | 0.00 | 62 | 1011.2 |
| 20260905215553 | 92 | 12 | 2.6 | 7.8 | 0.00 | 0.00 | 0.00 | 62 | 1011.2 |
| 20260905215052 | 93 | 331 | 3.5 | 7.8 | 0.00 | 0.00 | 0.00 | 61 | 1011.3 |
| 20260905214602 | 93 | 335 | 4.3 | 7.8 | 0.00 | 0.00 | 0.00 | 61 | 1011.5 |
| 20260905214052 | 93 | 350 | 2.6 | 7.8 | 0.00 | 0.00 | 0.00 | 60 | 1011.5 |
| 20260905213552 | 93 | 311 | 3.5 | 7.0 | 0.00 | 0.00 | 0.00 | 61 | 1011.6 |
| 20260905213108 | 93 | 359 | 1.7 | 7.0 | 0.00 | 0.00 | 0.00 | 61 | 1011.4 |
| 20260905212553 | 93 | 347 | 1.7 | 7.8 | 0.00 | 0.00 | 0.00 | 60 | 1011.5 |
| 20260905212052 | 93 | 340 | 3.5 | 7.8 | 0.00 | 0.00 | 0.00 | 60 | 1011.5 |
| 20260905211604 | 94 | 338 | 3.5 | 7.8 | 0.00 | 0.00 | 0.00 | 59 | 1011.6 |
| 20260905211053 | 94 | 325 | 4.3 | 7.8 | 0.00 | 0.00 | 0.00 | 59 | 1011.5 |
| 20260905210552 | 94 | 7 | 0.9 | 6.1 | 0.00 | 0.00 | 0.00 | 60 | 1011.6 |
| 20260905210104 | 94 | 351 | 3.5 | 6.1 | 0.00 | 0.00 | 0.00 | 59 | 1011.6 |
| 20260905205552 | 94 | 314 | 2.6 | 10.4 | 0.00 | 0.00 | 0.00 | 59 | 1011.8 |
| 20260905205053 | 94 | 301 | 1.7 | 10.4 | 0.00 | 0.00 | 0.00 | 58 | 1011.8 |
| 20260905204602 | 94 | 343 | 4.3 | 10.4 | 0.00 | 0.00 | 0.00 | 58 | 1012.0 |
| 20260905204052 | 94 | 326 | 5.2 | 10.4 | 0.00 | 0.00 | 0.00 | 57 | 1012.0 |
| 20260905203556 | 94 | 319 | 3.5 | 8.7 | 0.00 | 0.00 | 0.00 | 58 | 1012.1 |
| 20260905203102 | 95 | 327 | 4.3 | 7.0 | 0.00 | 0.00 | 0.00 | 57 | 1012.2 |
| 20260905202552 | 95 | 320 | 3.5 | 8.7 | 0.00 | 0.00 | 0.00 | 57 | 1012.2 |
| 20260905202053 | 95 | 342 | 3.5 | 10.4 | 0.00 | 0.00 | 0.00 | 55 | 1012.3 |
| 20260905201557 | 95 | 315 | 4.3 | 10.4 | 0.00 | 0.00 | 0.00 | 56 | 1012.4 |
| 20260905201052 | 95 | 330 | 0.9 | 7.0 | 0.00 | 0.00 | 0.00 | 57 | 1012.4 |
| 20260905200552 | 96 | 0 | 1.7 | 6.1 | 0.00 | 0.00 | 0.00 | 56 | 1012.4 |
| 20260905200100 | 96 | 333 | 1.7 | 5.2 | 0.00 | 0.00 | 0.00 | 55 | 1012.4 |
| 20260905195553 | 97 | 308 | 1.7 | 5.2 | 0.00 | 0.00 | 0.00 | 57 | 1012.5 |
| 20260905195056 | 97 | 301 | 0.9 | 4.3 | 0.00 | 0.00 | 0.00 | 56 | 1012.3 |
| 20260905194604 | 97 | 299 | 0.0 | 7.0 | 0.00 | 0.00 | 0.00 | 58 | 1012.4 |
| 20260905194053 | 96 | 0 | 2.6 | 7.0 | 0.00 | 0.00 | 0.00 | 59 | 1012.5 |
| 20260905193554 | 96 | 254 | 1.7 | 5.2 | 0.00 | 0.00 | 0.00 | 58 | 1012.6 |
| 20260905193101 | 95 | 323 | 2.6 | 5.2 | 0.00 | 0.00 | 0.00 | 57 | 1012.6 |
| 20260905192553 | 95 | 234 | 1.7 | 6.1 | 0.00 | 0.00 | 0.00 | 58 | 1012.6 |
| 20260905192056 | 95 | 0 | 1.7 | 6.1 | 0.00 | 0.00 | 0.00 | 58 | 1012.7 |
| 20260905191604 | 95 | 329 | 0.9 | 4.3 | 0.00 | 0.00 | 0.00 | 59 | 1012.8 |
| 20260905191052 | 94 | 0 | 0.0 | 3.5 | 0.00 | 0.00 | 0.00 | 64 | 1012.8 |
| 20260905190554 | 93 | 186 | 0.9 | 5.2 | 0.00 | 0.00 | 0.00 | 60 | 1012.9 |
| 20260905190113 | 93 | 316 | 0.9 | 5.2 | 0.00 | 0.00 | 0.00 | 60 | 1013.0 |
| 20260905185553 | 93 | 7 | 0.0 | 5.2 | 0.00 | 0.00 | 0.00 | 61 | 1013.1 |
| 20260905185053 | 93 | 187 | 3.5 | 5.2 | 0.00 | 0.00 | 0.00 | 62 | 1013.1 |
| 20260905184604 | 93 | 199 | 0.0 | 4.3 | 0.00 | 0.00 | 0.00 | 61 | 1013.2 |
| 20260905184053 | 93 | 152 | 0.0 | 7.0 | 0.00 | 0.00 | 0.00 | 61 | 1013.3 |
| 20260905183553 | 93 | 338 | 1.7 | 7.0 | 0.00 | 0.00 | 0.00 | 61 | 1013.4 |
| 20260905183124 | 93 | 175 | 0.0 | 6.1 | 0.00 | 0.00 | 0.00 | 63 | 1013.5 |
| 20260905182552 | 93 | 188 | 1.7 | 6.1 | 0.00 | 0.00 | 0.00 | 60 | 1013.5 |
| 20260905182053 | 92 | 0 | 0.0 | 3.5 | 0.00 | 0.00 | 0.00 | 62 | 1013.6 |
| 20260905181602 | 92 | 0 | 0.9 | 3.5 | 0.00 | 0.00 | 0.00 | 63 | 1013.6 |
| 20260905181056 | 92 | 0 | 0.9 | 4.3 | 0.00 | 0.00 | 0.00 | 60 | 1013.5 |
| 20260905180552 | 92 | 231 | 0.9 | 4.3 | 0.00 | 0.00 | 0.00 | 62 | 1013.6 |
| 20260905180100 | 91 | 0 | 0.0 | 4.3 | 0.00 | 0.00 | 0.00 | 64 | 1013.6 |
| 20260905175553 | 91 | 297 | 0.9 | 4.3 | 0.00 | 0.00 | 0.00 | 62 | 1013.6 |
| 20260905175053 | 90 | 182 | 0.9 | 7.0 | 0.00 | 0.00 | 0.00 | 64 | 1013.7 |
| 20260905174600 | 90 | 180 | 1.7 | 7.0 | 0.00 | 0.00 | 0.00 | 63 | 1013.8 |
| 20260905174052 | 90 | 149 | 1.7 | 6.1 | 0.00 | 0.00 | 0.00 | 61 | 1013.9 |
| 20260905173553 | 90 | 208 | 1.7 | 6.1 | 0.00 | 0.00 | 0.00 | 63 | 1013.8 |
| 20260905173101 | 89 | 171 | 2.6 | 7.8 | 0.00 | 0.00 | 0.00 | 65 | 1013.9 |
| 20260905172552 | 89 | 145 | 0.9 | 7.8 | 0.00 | 0.00 | 0.00 | 65 | 1014.0 |
| 20260905172052 | 89 | 206 | 3.5 | 7.8 | 0.00 | 0.00 | 0.00 | 62 | 1014.0 |
| 20260905171605 | 89 | 224 | 2.6 | 6.1 | 0.00 | 0.00 | 0.00 | 62 | 1014.0 |
| 20260905171053 | 89 | 191 | 2.6 | 6.1 | 0.00 | 0.00 | 0.00 | 65 | 1014.2 |
| 20260905170553 | 89 | 181 | 1.7 | 6.1 | 0.00 | 0.00 | 0.00 | 64 | 1014.3 |
| 20260905170100 | 88 | 167 | 2.6 | 6.1 | 0.00 | 0.00 | 0.00 | 66 | 1014.5 |
| 20260905165552 | 88 | 190 | 1.7 | 7.0 | 0.00 | 0.00 | 0.00 | 64 | 1014.6 |
| 20260905165052 | 88 | 221 | 2.6 | 7.0 | 0.00 | 0.00 | 0.00 | 66 | 1014.7 |
| 20260905164605 | 88 | 214 | 2.6 | 6.1 | 0.00 | 0.00 | 0.00 | 65 | 1014.9 |
| 20260905164053 | 88 | 169 | 1.7 | 6.1 | 0.00 | 0.00 | 0.00 | 68 | 1014.8 |
| 20260905163552 | 87 | 0 | 1.7 | 6.1 | 0.00 | 0.00 | 0.00 | 68 | 1014.8 |
| 20260905163056 | 87 | 191 | 1.7 | 5.2 | 0.00 | 0.00 | 0.00 | 65 | 1014.8 |
| 20260905162553 | 86 | 138 | 1.7 | 6.1 | 0.00 | 0.00 | 0.00 | 65 | 1014.7 |
| 20260905162053 | 86 | 360 | 1.7 | 7.8 | 0.00 | 0.00 | 0.00 | 66 | 1014.7 |
| 20260905161600 | 86 | 122 | 2.6 | 7.8 | 0.00 | 0.00 | 0.00 | 67 | 1014.7 |
| 20260905161053 | 85 | 176 | 2.6 | 7.8 | 0.00 | 0.00 | 0.00 | 68 | 1014.7 |
| 20260905160555 | 85 | 153 | 2.6 | 7.8 | 0.00 | 0.00 | 0.00 | 68 | 1014.6 |
| 20260905160122 | 85 | 169 | 3.5 | 7.0 | 0.00 | 0.00 | 0.00 | 67 | 1014.8 |
| 20260905155553 | 85 | 198 | 2.6 | 6.1 | 0.00 | 0.00 | 0.00 | 68 | 1014.9 |
| 20260905155052 | 84 | 159 | 1.7 | 8.7 | 0.00 | 0.00 | 0.00 | 67 | 1015.1 |
| 20260905154601 | 84 | 222 | 1.7 | 8.7 | 0.00 | 0.00 | 0.00 | 68 | 1015.3 |
| 20260905154054 | 84 | 195 | 1.7 | 5.2 | 0.00 | 0.00 | 0.00 | 68 | 1015.2 |
| 20260905153552 | 83 | 119 | 0.9 | 7.0 | 0.00 | 0.00 | 0.00 | 70 | 1015.1 |
| 20260905153112 | 83 | 0 | 0.9 | 7.0 | 0.00 | 0.00 | 0.00 | 69 | 1015.1 |
| 20260905152553 | 82 | 265 | 0.9 | 7.0 | 0.00 | 0.00 | 0.00 | 72 | 1015.1 |
| 20260905152056 | 82 | 181 | 1.7 | 7.8 | 0.00 | 0.00 | 0.00 | 70 | 1015.1 |
| 20260905151609 | 82 | 143 | 2.6 | 7.8 | 0.00 | 0.00 | 0.00 | 71 | 1015.0 |
| 20260905151052 | 81 | 179 | 2.6 | 7.0 | 0.00 | 0.00 | 0.00 | 71 | 1015.0 |
| 20260905150552 | 81 | 158 | 1.7 | 7.8 | 0.00 | 0.00 | 0.00 | 71 | 1015.0 |
| 20260905150057 | 81 | 203 | 3.5 | 7.8 | 0.00 | 0.00 | 0.00 | 71 | 1015.0 |
| 20260905145552 | 81 | 171 | 4.3 | 7.8 | 0.00 | 0.00 | 0.00 | 72 | 1015.1 |
| 20260905145055 | 80 | 148 | 2.6 | 7.0 | 0.00 | 0.00 | 0.00 | 76 | 1015.2 |
| 20260905144556 | 80 | 150 | 1.7 | 7.0 | 0.00 | 0.00 | 0.00 | 75 | 1015.3 |
| 20260905144052 | 80 | 184 | 2.6 | 7.0 | 0.00 | 0.00 | 0.00 | 75 | 1015.3 |
| 20260905143552 | 79 | 150 | 0.9 | 7.0 | 0.00 | 0.00 | 0.00 | 75 | 1015.4 |
| 20260905143107 | 79 | 105 | 3.5 | 7.0 | 0.00 | 0.00 | 0.00 | 76 | 1015.6 |
| 20260905142556 | 79 | 122 | 0.9 | 7.8 | 0.00 | 0.00 | 0.00 | 77 | 1015.5 |
| 20260905142054 | 79 | 243 | 3.5 | 9.6 | 0.00 | 0.00 | 0.00 | 76 | 1015.3 |
| 20260905141600 | 79 | 144 | 3.5 | 9.6 | 0.00 | 0.00 | 0.00 | 75 | 1015.3 |
| 20260905141052 | 79 | 186 | 1.7 | 5.2 | 0.00 | 0.00 | 0.00 | 76 | 1015.3 |
| 20260905140554 | 79 | 230 | 1.7 | 6.1 | 0.00 | 0.00 | 0.00 | 78 | 1015.3 |
| 20260905140106 | 78 | 214 | 0.0 | 6.1 | 0.00 | 0.00 | 0.00 | 79 | 1015.5 |
| 20260905135554 | 78 | 113 | 2.6 | 13.0 | 0.00 | 0.00 | 0.00 | 78 | 1015.5 |
| 20260905135054 | 78 | 187 | 2.6 | 13.0 | 0.00 | 0.00 | 0.00 | 78 | 1015.4 |
| 20260905134605 | 78 | 137 | 0.9 | 8.7 | 0.00 | 0.00 | 0.00 | 80 | 1015.3 |
| 20260905134053 | 78 | 0 | 0.9 | 8.7 | 0.00 | 0.00 | 0.00 | 81 | 1015.4 |
| 20260905133553 | 78 | 0 | 2.6 | 8.7 | 0.00 | 0.00 | 0.00 | 81 | 1015.4 |
| 20260905133107 | 78 | 0 | 1.7 | 10.4 | 0.00 | 0.00 | 0.00 | 84 | 1015.3 |
| 20260905132553 | 77 | 104 | 2.6 | 10.4 | 0.00 | 0.00 | 0.00 | 84 | 1015.2 |
| 20260905132055 | 77 | 162 | 3.5 | 10.4 | 0.00 | 0.00 | 0.00 | 84 | 1015.3 |
| 20260905131610 | 77 | 81 | 3.5 | 10.4 | 0.00 | 0.00 | 0.00 | 84 | 1015.5 |
| 20260905131053 | 77 | 156 | 3.5 | 12.2 | 0.00 | 0.00 | 0.00 | 84 | 1015.7 |
| 20260905130553 | 77 | 157 | 3.5 | 12.2 | 0.00 | 0.00 | 0.00 | 84 | 1015.5 |
| 20260905130115 | 77 | 0 | 2.6 | 7.0 | 0.00 | 0.00 | 0.00 | 86 | 1015.4 |
| 20260905125553 | 77 | 122 | 1.7 | 11.3 | 0.00 | 0.00 | 0.00 | 89 | 1015.3 |
| 20260905125053 | 76 | 6 | 3.5 | 11.3 | 0.00 | 0.00 | 0.00 | 90 | 1015.3 |
| 20260905124602 | 76 | 111 | 3.5 | 7.8 | 0.00 | 0.00 | 0.00 | 93 | 1015.3 |
| 20260905124054 | 75 | 46 | 1.7 | 7.0 | 0.00 | 0.00 | 0.00 | 94 | 1015.4 |
| 20260905123554 | 75 | 127 | 0.9 | 7.0 | 0.00 | 0.00 | 0.00 | 95 | 1014.9 |
| 20260905123104 | 74 | 72 | 1.7 | 10.4 | 0.00 | 0.00 | 0.00 | 96 | 1015.2 |
| 20260905122553 | 74 | 64 | 4.3 | 10.4 | 0.00 | 0.00 | 0.00 | 97 | 1015.0 |
| 20260905122054 | 73 | 80 | 2.6 | 8.7 | 0.00 | 0.00 | 0.00 | 98 | 1015.1 |
| 20260905121602 | 73 | 0 | 0.0 | 0.0 | 0.00 | 0.00 | 0.00 | 97 | 1014.4 |
| 20260905121053 | 73 | 0 | 0.0 | 0.0 | 0.00 | 0.00 | 0.00 | 97 | 1014.2 |
| 20260905120555 | 73 | 0 | 0.0 | 0.0 | 0.00 | 0.00 | 0.00 | 97 | 1014.2 |
| 20260905120114 | 73 | 0 | 0.0 | 0.0 | 0.00 | 0.00 | 0.00 | 97 | 1014.1 |
| 20260905115557 | 73 | 0 | 0.0 | 0.9 | 0.00 | 0.00 | 0.00 | 97 | 1014.1 |
| 20260905115054 | 73 | 0 | 0.0 | 0.9 | 0.00 | 0.00 | 0.00 | 97 | 1014.0 |
| 20260905114604 | 73 | 0 | 0.0 | 0.0 | 0.00 | 0.00 | 0.00 | 96 | 1013.9 |
| 20260905114053 | 73 | 0 | 0.0 | 0.0 | 0.00 | 0.00 | 0.00 | 96 | 1013.9 |
| 20260905113554 | 73 | 0 | 0.0 | 0.0 | 0.00 | 0.00 | 0.00 | 96 | 1013.9 |
| 20260905113106 | 73 | 0 | 0.0 | 0.0 | 0.00 | 0.00 | 0.00 | 96 | 1013.9 |
| 20260905112558 | 73 | 0 | 0.0 | 0.0 | 0.00 | 0.00 | 0.00 | 96 | 1013.8 |
| 20260905112053 | 73 | 0 | 0.0 | 0.0 | 0.00 | 0.00 | 0.00 | 97 | 1013.6 |
| 20260905111612 | 73 | 0 | 0.0 | 0.0 | 0.00 | 0.00 | 0.00 | 97 | 1013.7 |
| 20260905111053 | 73 | 0 | 0.0 | 0.9 | 0.00 | 0.00 | 0.00 | 96 | 1013.5 |
| 20260905110558 | 73 | 0 | 0.0 | 0.9 | 0.00 | 0.00 | 0.00 | 96 | 1013.5 |
| 20260905110100 | 73 | 0 | 0.0 | 0.9 | 0.00 | 0.00 | 0.00 | 96 | 1013.4 |
| 20260905105553 | 74 | 0 | 0.0 | 0.9 | 0.00 | 0.00 | 0.00 | 96 | 1013.5 |
| 20260905105052 | 74 | 0 | 0.0 | 0.0 | 0.00 | 0.00 | 0.00 | 96 | 1013.5 |
| 20260905104558 | 74 | 0 | 0.0 | 0.0 | 0.00 | 0.00 | 0.00 | 96 | 1013.5 |
| 20260905104052 | 74 | 0 | 0.0 | 0.9 | 0.00 | 0.00 | 0.00 | 96 | 1013.6 |
| 20260905103552 | 74 | 0 | 0.0 | 0.9 | 0.00 | 0.00 | 0.00 | 96 | 1013.6 |
| 20260905103057 | 74 | 0 | 0.0 | 0.0 | 0.00 | 0.00 | 0.00 | 96 | 1013.7 |
| 20260905102554 | 74 | 0 | 0.0 | 0.9 | 0.00 | 0.00 | 0.00 | 96 | 1013.7 |
| 20260905102053 | 74 | 0 | 0.0 | 0.9 | 0.00 | 0.00 | 0.00 | 96 | 1013.7 |
| 20260905101606 | 74 | 0 | 0.0 | 0.9 | 0.00 | 0.00 | 0.00 | 96 | 1013.7 |
| 20260905101053 | 74 | 0 | 0.0 | 0.0 | 0.00 | 0.00 | 0.00 | 96 | 1013.7 |
| 20260905100553 | 74 | 0 | 0.0 | 0.0 | 0.00 | 0.00 | 0.00 | 96 | 1013.8 |
| 20260905100057 | 74 | 0 | 0.0 | 0.0 | 0.00 | 0.00 | 0.00 | 96 | 1013.6 |
| 20260905095552 | 74 | 0 | 0.0 | 0.0 | 0.00 | 0.00 | 0.00 | 96 | 1013.6 |
| 20260905095055 | 74 | 0 | 0.0 | 0.0 | 0.00 | 0.00 | 0.00 | 96 | 1013.6 |
| 20260905094556 | 74 | 0 | 0.0 | 0.0 | 0.00 | 0.00 | 0.00 | 97 | 1013.5 |
| 20260905094052 | 74 | 0 | 0.0 | 0.0 | 0.00 | 0.00 | 0.00 | 96 | 1013.5 |
| 20260905093552 | 74 | 0 | 0.0 | 0.9 | 0.00 | 0.00 | 0.00 | 96 | 1013.4 |
| 20260905093101 | 74 | 0 | 0.0 | 0.9 | 0.00 | 0.00 | 0.00 | 96 | 1013.4 |
| 20260905092555 | 74 | 0 | 0.0 | 0.9 | 0.00 | 0.00 | 0.00 | 96 | 1013.4 |
| 20260905092054 | 74 | 0 | 0.0 | 0.9 | 0.00 | 0.00 | 0.00 | 96 | 1013.4 |
| 20260905091558 | 74 | 0 | 0.0 | 0.0 | 0.00 | 0.00 | 0.00 | 96 | 1013.4 |